Location: Caltech
(34.1382°N, 118.1253°W)
Time: 08:24:02
(UTC-07:00)

ARGOS - Visible Passes

Search period start: 31 July 2015 00:00
Search period end: 10 August 2015 00:00
Orbit: 820 x 835 km, 98.7° (Epoch: 30 July)

Date Brightness Start Highest point End Pass type
(mag) Time Alt. Az. Time Alt. Az. Time Alt. Az.
31 Jul 4.2 21:35:01 25° E 21:36:05 27° ENE 21:40:34 10° NNE visible
31 Jul 4.5 23:16:32 32° W 23:16:32 32° W 23:20:57 10° NW visible
01 Aug 4.7 21:16:20 16° E 21:17:44 18° ENE 21:21:23 10° NNE visible
01 Aug 3.8 22:57:52 48° W 22:57:52 48° W 23:02:49 10° NNW visible
02 Aug 5.1 20:57:41 10° E 20:59:25 12° ENE 21:01:33 10° NE visible
02 Aug 3.1 22:39:12 75° W 22:39:12 75° W 22:44:29 10° NNW visible
03 Aug 3.0 22:20:32 73° E 22:20:37 73° ENE 22:25:59 10° N visible
04 Aug 5.7 00:02:04 11° W 00:02:04 11° W 00:02:39 10° WNW visible
04 Aug 3.4 22:01:53 47° E 22:02:11 48° ENE 22:07:20 10° N visible
04 Aug 5.3 23:43:24 17° W 23:43:24 17° W 23:46:08 10° NW visible
05 Aug 4.0 21:43:13 31° E 21:43:47 32° ENE 21:48:31 10° N visible
05 Aug 4.8 23:24:45 26° W 23:24:45 26° W 23:28:29 10° NW visible
06 Aug 4.5 21:24:34 21° E 21:25:25 22° ENE 21:29:28 10° NNE visible
06 Aug 4.2 23:06:05 39° W 23:06:05 39° W 23:10:27 10° NNW visible
07 Aug 4.9 21:05:54 13° E 21:07:05 14° ENE 21:10:01 10° NNE visible
07 Aug 3.5 22:47:26 59° WNW 22:47:26 59° WNW 22:52:11 10° NNW visible
08 Aug 3.1 22:28:46 77° N 22:28:46 77° N 22:33:45 10° NNW visible
09 Aug 3.3 22:10:07 56° ENE 22:10:07 56° ENE 22:15:10 10° N visible
09 Aug 5.6 23:51:38 14° WNW 23:51:38 14° WNW 23:53:19 10° WNW visible
